Location: Jaite
(41.2884°N, 81.5737°W)
Time: 05:43:11
(UTC+00:00)

Daily predictions for brighter satellites

Satellite Brightness Start Highest point End
(mag) Time Altitude Azimuth Time Altitude Azimuth Time Altitude Azimuth
PSLV R/B 3.3 00:00:51 10° SSE 00:04:54 83° WSW 00:08:58 10° NNW
Cosmos 407 Rocket 4.4 00:00:06 10° SW 00:05:06 47° WNW 00:10:05 10° N
RESURS DK-1 2.1 00:02:00 10° NNW 00:05:58 84° NE 00:05:58 84° NE
Okean 2 Rocket 2.9 00:03:36 10° S 00:07:58 73° E 00:08:01 73° E
Resurs 01 Rocket 4.1 00:12:18 11° N 00:12:18 11° N 00:12:25 10° N
COSMOS 2406 4.3 00:04:22 10° N 00:07:52 28° NNE 00:07:52 28° NNE
Nadezhda 4 Rocket 3.8 00:03:31 10° N 00:09:50 75° E 00:16:02 10° SSE
ATLAS 2AS CENTAUR R/B 4.2 00:06:38 10° NNW 00:10:49 18° NNE 00:10:49 18° NNE
ISS -2.2 00:11:44 10° W 00:14:17 32° NW 00:14:17 32° NW
SJ 16-02 1.4 00:11:24 10° SSW 00:15:05 64° S 00:15:05 64° S
Helios 1A Rocket 4.1 00:17:59 26° NW 00:19:01 32° WNW 00:22:04 10° SW
Cosmos 1536 Rocket 3.5 00:15:03 10° N 00:19:14 78° NNW 00:19:14 78° NNW
Cosmos 2195 Rocket 4.4 00:17:22 10° N 00:23:39 64° E 00:25:05 50° SE
ATLAS 5 CENTAUR R/B 3.5 00:19:58 10° NW 00:24:19 35° WSW 00:29:31 10° S
Cosmos 1428 Rocket 4.4 00:25:42 10° N 00:31:59 89° W 00:38:18 10° S
Cosmos 371 Rocket 3.9 00:28:13 10° SSW 00:31:39 48° SSW 00:31:39 48° SSW
Cosmos 2058 4.2 00:29:26 10° NNW 00:33:07 38° W 00:36:48 10° SSW
Cosmos 489 Rocket 4.3 00:28:26 10° NNW 00:34:43 76° ENE 00:34:48 76° E
USA 281 3.6 01:07:16 55° NNW 01:07:16 55° NNW 01:12:14 10° NNW
Cosmos 2082 Rocket 3.8 01:23:52 10° NW 01:28:04 30° W 01:28:04 30° W
Cosmos 2344 4.2 01:39:06 10° NW 01:45:44 65° NW 01:45:44 65° NW
Cosmos 2278 Rocket 4.5 08:43:28 17° SE 08:43:28 17° SE 08:44:45 10° SE
Cosmos 2237 Rocket 4.3 08:43:08 20° NE 08:43:08 20° NE 08:44:59 10° NE
USA 267 3.9 08:48:07 10° NE 08:53:32 50° ESE 08:53:32 50° ESE
ADEOS Rocket 4.5 09:13:18 10° N 09:16:31 30° N 09:16:31 30° N
ACS3 Solar Sail 3.9 09:19:43 10° N 09:20:28 14° N 09:20:28 14° N
USA 234 4.2 09:23:54 10° E 09:29:51 38° NNE 09:31:50 31° N
Cosmos 1420 Rocket 4.5 09:38:44 55° NNE 09:38:44 55° NNE 09:42:52 10° NNE
Cosmos 2251 Rocket 4.1 09:38:23 46° NNE 09:39:34 57° ENE 09:44:49 10° SE
SL-16 R/B 3.4 09:37:56 10° S 09:43:10 40° ESE 09:48:25 10° NE
PAYLOAD A 4.0 09:40:43 10° NNE 09:45:53 82° NE 09:45:53 82° NE
Cosmos 1725 Rocket 3.9 09:40:06 10° N 09:46:27 88° W 09:52:45 10° S
Cosmos 2233 Rocket 4.3 09:42:08 10° N 09:48:25 66° E 09:54:35 10° SSE
BREEZE-M DEB (TANK) 4.3 09:54:02 18° ESE 09:54:02 18° ESE 09:55:21 10° E
CZ-2C R/B 3.6 09:55:42 10° N 09:58:22 31° N 09:58:22 31° N
SL-08 R/B 4.3 10:01:08 10° N 10:07:18 76° W 10:13:31 10° S
Cosmos 1802 Rocket 4.0 10:06:58 45° NW 10:08:23 53° W 10:14:22 10° SSW
Cosmos 1190 Rocket 3.8 10:15:29 32° NNW 10:17:57 79° WSW 10:23:09 10° SSE
SJ 16-02 1.3 10:18:05 32° N 10:20:01 77° ENE 10:24:16 10° SSE
Aureole 3 4.1 10:14:03 10° S 10:20:08 85° E 10:25:14 10° N
Cosmos 676 Rocket 4.3 10:15:43 13° NNW 10:20:21 66° ENE 10:25:29 10° SSE
SKYMED 2 4.5 10:16:12 10° SSE 10:20:23 49° ENE 10:24:35 10° N
COSMO-SKYMED 1 4.0 10:19:26 10° SE 10:23:11 35° ENE 10:26:57 10° N
Cosmos 2278 Rocket 3.6 10:25:22 21° SW 10:25:22 21° SW 10:27:53 10° SSW
Cosmos 2237 Rocket 3.3 10:24:59 27° NW 10:24:59 27° NW 10:28:42 10° N
Cosmos 1943 Rocket 3.8 10:28:04 17° SW 10:28:04 17° SW 10:29:39 10° SSW
Cosmos 2056 Rocket 3.5 10:21:55 13° SSW 10:26:41 64° WNW 10:32:03 10° NNE
ARGOS 4.4 10:23:24 10° N 10:26:10 24° NNW 10:26:10 24° NNW
USA 229 DEB 3.4 10:25:16 10° SSW 10:31:02 81° ESE 10:37:31 10° NE
Cosmos 2016 Rocket 4.3 10:25:10 10° NNW 10:31:06 42° W 10:36:57 10° SSW
USA 229 3.5 10:25:29 10° SSW 10:31:15 80° ESE 10:37:43 10° NE
Cosmos 1954 Rocket 3.8 10:28:36 21° NNW 10:32:07 73° WSW 10:37:13 10° S
Cosmos 2369 Rocket 3.1 10:29:50 10° NNW 10:35:21 49° ENE 10:40:52 10° SE
USA 267 3.5 10:31:13 10° NE 10:37:26 49° NNW 10:40:54 26° W
Lacrosse 5 rocket 3.5 10:38:24 10° N 10:39:36 11° NNE 10:40:48 10° NE
IRS-1D 3.3 10:36:42 10° N 10:41:39 75° WNW 10:46:32 10° SSW
Cosmos 1484 Rocket 4.4 10:39:53 10° NNE 10:43:07 33° E 10:46:18 10° SSE
Cosmos 1400 Rocket 3.8 10:39:57 10° N 10:43:29 42° ENE 10:46:56 10° SSE
Cosmos 1371 Rocket 4.3 10:41:12 10° SW 10:46:14 44° WNW 10:51:21 10° N
FengYun 1-2 T 4.3 10:42:48 10° N 10:48:13 52° WNW 10:53:38 10° SW
Cosmos 1869 3.1 10:47:38 29° NW 10:49:05 49° W 10:52:28 10° S
Cosmos 371 Rocket 3.3 10:45:35 15° NNW 10:49:32 61° WSW 10:54:16 10° S
Helios 1A Rocket 2.3 10:46:37 10° SSE 10:49:59 89° E 10:53:22 10° NNW
ATLAS 3B R/B 2.9 10:44:36 10° SW 10:52:04 76° NW 10:59:58 10° NNE
Cosmos 968 Rocket 4.0 10:46:56 10° NNW 10:52:08 61° ENE 10:57:18 10° SSE
Cosmos 1812 1.8 10:53:54 24° NNW 10:55:28 61° W 10:58:18 10° S
CZ-4 R/B 3.8 10:52:12 10° N 10:56:57 58° WNW 11:01:34 10° SSW
Cosmos 304 Rocket 3.9 10:53:23 15° NW 10:57:07 48° WSW 11:01:41 10° S
CENTAUR R/B 3.6 10:49:12 10° NNW 10:57:40 71° NE 11:07:08 10° SE
Cosmos 2151 Rocket 3.9 10:54:58 10° N 10:59:28 69° E 11:03:53 10° SSE
Meteor 1-21 Rocket 4.2 10:55:50 10° SSW 11:01:33 66° W 11:07:11 10° N
Cosmos 1110 Rocket 4.0 10:56:55 10° SSW 11:02:12 83° WNW 11:07:32 10° NNE
Cosmos 1378 Rocket 3.5 11:01:47 10° SSW 11:05:58 57° W 11:10:11 10° N
Sich 1 Rocket 4.5 11:02:35 10° N 11:07:01 53° E 11:11:23 10° SSE
NOAA 12 4.2 11:04:26 10° N 11:09:36 52° WNW 11:14:44 10° SW
Cosmos 2242 Rocket 4.2 11:06:03 10° SW 11:10:00 33° WNW 11:14:00 10° NNW
Cosmos 1656 Rocket 4.0 11:05:54 10° NW 11:11:16 44° WSW 11:16:35 10° S
USA 234 3.3 11:05:57 10° SE 11:12:31 78° SW 11:19:05 10° NW
Okean 1 Rocket 3.4 11:12:10 10° N 11:16:28 66° E 11:20:44 10° SSE
Cosmos 332 Rocket 4.1 11:13:36 10° NNW 11:18:24 69° ENE 11:23:07 10° SSE
CZ-3 R/B 3.2 11:07:09 10° WSW 11:18:24 32° SSW 11:23:14 10° SE
Meteor 2-17 Rocket 4.4 11:14:40 10° S 11:20:44 84° W 11:26:52 10° N
USA 306 4.5 11:21:57 11° NW 11:23:31 13° N 11:25:25 10° NNE
Cosmos 1441 Rocket 4.1 11:23:41 10° S 11:26:53 45° E 11:30:06 10° NNE
SL-16 R/B 2.9 11:22:20 10° WSW 11:27:19 31° NW 11:32:21 10° N
IGS 5A 3.4 11:26:38 10° NNE 11:30:40 89° W 11:34:39 10° SSW
Cosmos 1452 Rocket 3.6 11:30:38 10° SSW 11:35:45 57° WNW 11:40:56 10° NNE
H-2A R/B 4.4 11:33:26 10° SSW 11:35:55 16° SSE 11:40:47 10° SE
ARIANE 5 R/B 3.6 11:37:21 10° NNE 11:42:19 51° E 11:47:19 10° S
Cosmos 1850 Rocket 4.1 11:38:49 10° NNW 11:43:53 58° WSW 11:48:56 10° S
SAR-Lupe-4 4.2 11:41:09 10° NNE 11:44:40 61° ESE 11:48:10 10° S
Cosmos 1464 Rocket 4.1 11:40:00 10° NNW 11:45:54 51° W 11:51:47 10° SSW
Cosmos 1975 Rocket 4.2 11:43:38 10° SSE 11:47:45 49° E 11:51:54 10° NNE
NOSS 2-2 (C) 3.9 11:44:55 10° NNW 11:49:04 82° NE 11:54:56 10° SE
Meteor 2-1 Rocket 4.3 11:43:25 10° NNW 11:49:16 70° W 11:54:58 10° S
